Location: Holcomb Observatory and Planetarium
(39.8415°N, 86.1714°W)
Time: 03:05:00
(UTC-05:00)

Hubble Space Telescope - Visible Passes

Search period start: 20 December 2014 00:00
Search period end: 30 December 2014 00:00
Orbit: 545 x 549 km, 28.5° (Epoch: 19 December)

Date Brightness Start Highest point End Pass type
(mag) Time Alt. Az. Time Alt. Az. Time Alt. Az.
20 Dec 3.3 18:06:33 10° SW 18:09:07 16° S 18:11:41 10° SSE visible
21 Dec 3.4 17:58:52 10° SW 18:01:14 15° S 18:03:36 10° SSE visible
22 Dec 3.6 17:51:18 10° SW 17:53:20 13° SSW 17:55:22 10° SSE visible
